W6QLE Weather Reports


time (UTC)temp
C
wind
direction
speed
KPH
gust
KPH
rain 1hr
cm
rain 24hr
cm
rain mn
cm
humidity
%
barometer
mb
20260504201507 27 354 3.2 14.5 0.00 0.00 0.00 27 1008.5
20260504200012 27 264 4.8 17.7 0.00 0.00 0.00 25 1008.5
20260504194503 27 269 4.8 11.3 0.00 0.00 0.00 27 1008.5
20260504193004 27 289 3.2 9.7 0.00 0.00 0.00 28 1008.5
20260504191508 26 145 9.7 12.9 0.00 0.00 0.00 29 1008.7
20260504190013 26 261 1.6 9.7 0.00 0.00 0.00 31 1009.0
20260504184520 26 257 3.2 9.7 0.00 0.00 0.00 31 1009.1
20260504183004 26 261 0.0 4.8 0.00 0.00 0.00 34 1009.1
20260504181504 25 261 1.6 4.8 0.00 0.00 0.00 32 1009.2
20260504180007 24 261 1.6 3.2 0.00 0.00 0.00 35 1009.3
20260504174512 24 261 1.6 4.8 0.00 0.00 0.00 34 1009.4
20260504173021 23 261 0.0 4.8 0.00 0.00 0.00 36 1009.4
20260504171507 22 261 1.6 4.8 0.00 0.00 0.00 38 1009.4
20260504081524 10 141 0.0 0.0 0.00 0.00 0.00 82 1008.6
20260504050024 13 141 0.0 3.2 0.00 0.00 0.00 71 1008.6
20260504044526 14 141 0.0 3.2 0.00 0.00 0.00 69 1008.7
20260504043027 15 141 0.0 0.0 0.00 0.00 0.00 67 1008.7
20260504041515 16 141 0.0 0.0 0.00 0.00 0.00 65 1008.6
20260504040018 16 141 0.0 0.0 0.00 0.00 0.00 62 1008.5
20260504034532 17 141 0.0 0.0 0.00 0.00 0.00 57 1008.3
20260504033039 18 141 0.0 3.2 0.00 0.00 0.00 53 1008.2
20260504031531 19 139 0.0 0.0 0.00 0.00 0.00 49 1008.2
20260504030017 20 139 0.0 3.2 0.00 0.00 0.00 46 1008.2
20260504024540 21 139 0.0 3.2 0.00 0.00 0.00 43 1008.1
20260504023028 22 139 0.0 0.0 0.00 0.00 0.00 40 1008.1
20260504021527 23 139 0.0 1.6 0.00 0.00 0.00 36 1008.2
20260504020026 25 139 0.0 3.2 0.00 0.00 0.00 32 1008.4
20260504014522 26 138 0.0 3.2 0.00 0.00 0.00 27 1008.5
20260504013023 26 162 0.0 3.2 0.00 0.00 0.00 26 1008.6
20260504011528 27 184 0.0 4.8 0.00 0.00 0.00 24 1008.7
20260504010028 28 134 6.4 12.9 0.00 0.00 0.00 24 1008.8
20260504004534 28 174 3.2 8.0 0.00 0.00 0.00 22 1009.0
20260504003024 28 103 3.2 6.4 0.00 0.00 0.00 23 1009.1
20260504001506 28 165 1.6 8.0 0.00 0.00 0.00 23 1009.2
20260504000010 28 198 3.2 16.1 0.00 0.00 0.00 22 1009.4
20260503234517 28 129 3.2 16.1 0.00 0.00 0.00 22 1009.5
20260503233024 28 101 3.2 11.3 0.00 0.00 0.00 22 1009.7
20260503231508 28 256 1.6 12.9 0.00 0.00 0.00 22 1009.7
20260503230009 28 113 4.8 12.9 0.00 0.00 0.00 22 1009.8
20260503224513 28 17 3.2 4.8 0.00 0.00 0.00 22 1010.0
20260503223022 29 156 9.7 14.5 0.00 0.00 0.00 20 1010.4
20260503221525 30 191 4.8 6.4 0.00 0.00 0.00 21 1010.6
20260503220006 30 86 3.2 9.7 0.00 0.00 0.00 20 1010.9
20260503214516 29 283 4.8 6.4 0.00 0.00 0.00 21 1011.2
20260503213019 28 283 3.2 8.0 0.00 0.00 0.00 21 1011.4
20260503211535 28 283 1.6 6.4 0.00 0.00 0.00 21 1011.6
20260503210031 28 283 3.2 8.0 0.00 0.00 0.00 22 1011.9
20260503204509 29 123 4.8 11.3 0.00 0.00 0.00 21 1012.2
20260503203020 28 193 1.6 14.5 0.00 0.00 0.00 20 1012.3